Location: Beuvrequen
(50.8014°N, 1.6652°E)
Time: 22:07:55
(UTC+00:00)

Resurs 01 Rocket - Pass Details

Date: 16 October 2021
Orbit: 635 x 643 km, 97.9° (Epoch: 04 December)

Event Time Altitude Azimuth Distance (km) Brightness Sun altitude
Exits shadow 20:03:55 21° 359° (N) 1,433 3.6 -29.5°
Drops below altitude 10° 20:05:28 10° 353° (N) 2,038 4.5 -29.8°
Sets 20:07:43 0° 349° (N) 2,953 5.5 -30.1°
